Location: Columbus
(35.2256°N, 82.1549°W)
Time: 00:31:51
(UTC-05:00)

Envisat - Pass Details

Date: 01 December 2021
Orbit: 764 x 766 km, 98.2° (Epoch: 25 January)

Event Time Altitude Azimuth Distance (km) Brightness Sun altitude
Rises 05:46:25 0° 7° (N) 3,237 6.2 -18.5°
Reaches altitude 10° 05:48:46 10° 3° (N) 2,307 5.4 -18.1°
Maximum altitude 05:53:43 57° 286° (WNW) 900 3.0 -17.1°
Drops below altitude 10° 05:58:40 10° 209° (SSW) 2,292 5.3 -16.1°
Sets 06:00:59 0° 205° (SSW) 3,214 6.1 -15.7°
